Jasper, AL

10:43 PM CST on December 13, 2019 (GMT -0600)
Walker County-Bevill

Weather History for KJFX - November, 2019

Change the Weather History Date:

Saturday, November 16, 2019

  Actual Average Record
Temperature  
Mean Temperature 47 °F -  
Max Temperature 64 °F 62 °F 80 °F (1964)
Min Temperature 28 °F 34 °F 21 °F (1969)
Degree Days  
Heating Degree Days 18    
Moisture  
Dew Point 29 °F    
Average Humidity 66    
Maximum Humidity 100    
Minimum Humidity 26    
Precipitation  
Precipitation 0.00 in - - ()
Sea Level Pressure  
Sea Level Pressure 30.13 in    
Wind  
Wind Speed - ()    
Max Wind Speed -    
Max Gust Speed -    
Visibility 9.8 miles    
Events      
Averages and records for this station are not official NWS values.
T = Trace of Precipitation, MM = Missing Value Source: Averaged Metar Reports

Daily Weather History Graph

Daily Weather History Graph

Search for Another Location

Airport or City:

Astronomy

Nov. 16, 2019 Rise Set
Actual Time 6:22 AM CST 4:45 PM CST
Civil Twilight 5:55 AM CST 5:11 PM CST
Nautical Twilight 5:25 AM CST 5:42 PM CST
Astronomical Twilight 4:55 AM CST 6:11 PM CST
Moon 8:22 PM CST (11/16) 10:10 AM CST (11/16)
Length of Visible Light 11h 16m
Length of Day
10h 23m
Waning Gibbous, 82% of the Moon is Illuminated
Nov 16
Waning Gibbous
Nov 19
Last Quarter
Nov 26
New
Dec 4
First Quarter
Dec 11
Full

Hourly Weather History & Observations

Time (CST) Temp. Dew Point Humidity Pressure Visibility Wind Dir Wind Speed Gust Speed Precip Events Conditions
12:15 AM 37.4 °F 26.6 °F 65% 30.18 in 10.0 mi North - - N/A   Clear
12:35 AM 37.4 °F 26.6 °F 65% 30.18 in 10.0 mi North - - N/A   Clear
12:55 AM 35.6 °F 26.6 °F 70% 30.17 in 10.0 mi North - - N/A   Clear
1:15 AM 35.6 °F 26.6 °F 70% 30.17 in 10.0 mi North - - N/A   Clear
1:35 AM 35.6 °F 26.6 °F 70% 30.17 in 10.0 mi North - - N/A   Clear
1:55 AM 35.6 °F 26.6 °F 70% 30.16 in 10.0 mi North - - N/A   Clear
2:15 AM 35.6 °F 26.6 °F 70% 30.17 in 10.0 mi North - - N/A   Clear
2:35 AM 35.6 °F 26.6 °F 70% 30.16 in 10.0 mi North - - N/A   Clear
2:55 AM 35.6 °F 26.6 °F 70% 30.16 in 10.0 mi North - - N/A   Clear
3:15 AM 35.6 °F 26.6 °F 70% 30.16 in 10.0 mi North - - N/A   Clear
3:35 AM 33.8 °F 26.6 °F 75% 30.16 in 10.0 mi North - - N/A   Clear
3:55 AM 33.8 °F 26.6 °F 75% 30.16 in 10.0 mi North - - N/A   Clear
4:55 AM 33.8 °F 26.6 °F 75% 30.17 in 10.0 mi North - - N/A   Clear
5:15 AM 33.8 °F 26.6 °F 75% 30.17 in 10.0 mi North - - N/A   Clear
5:35 AM 33.8 °F 26.6 °F 75% 30.17 in 10.0 mi North - - N/A   Clear
5:55 AM 32.0 °F 26.6 °F 80% 30.18 in 10.0 mi North - - N/A   Clear
6:15 AM 32.0 °F 26.6 °F 80% 30.18 in 10.0 mi North - - N/A   Clear
6:35 AM 32.0 °F 26.6 °F 80% 30.19 in 8.0 mi North - - N/A   Clear
6:55 AM 32.0 °F 26.6 °F 80% 30.19 in 8.0 mi North - - N/A   Clear
7:15 AM 33.8 °F 28.4 °F 81% 30.19 in 8.0 mi North - - N/A   Clear
7:55 AM 37.4 °F 28.4 °F 70% 30.20 in 9.0 mi North - - N/A   Clear
8:15 AM 39.2 °F 30.2 °F 70% 30.20 in 9.0 mi North - - N/A   Clear
8:35 AM 41.0 °F 28.4 °F 61% 30.19 in 9.0 mi North - - N/A   Clear
8:55 AM 42.8 °F 30.2 °F 61% 30.19 in 9.0 mi North - - N/A   Clear
9:15 AM 44.6 °F 30.2 °F 57% 30.20 in 9.0 mi North - - N/A   Clear
9:35 AM 48.2 °F 30.2 °F 50% 30.20 in 10.0 mi North - - N/A   Clear
9:55 AM 50.0 °F 30.2 °F 47% 30.19 in 10.0 mi North - - N/A   Clear
10:35 AM 51.8 °F 30.2 °F 44% 30.17 in 10.0 mi North - - N/A   Clear
10:55 AM 53.6 °F 30.2 °F 41% - 10.0 mi North - - N/A   Clear
11:15 AM 57.2 °F 30.2 °F 36% 30.15 in 10.0 mi North - - N/A   Clear
11:55 AM 59.0 °F 30.2 °F 34% 30.13 in 10.0 mi North - - N/A   Clear
12:15 PM 59.0 °F 30.2 °F 34% 30.12 in 10.0 mi North - - N/A   Clear
12:35 PM 60.8 °F 28.4 °F 29% 30.11 in 10.0 mi North - - N/A   Clear
12:55 PM 64.4 °F 28.4 °F 26% 30.10 in 10.0 mi North - - N/A   Clear
1:15 PM 64.4 °F 30.2 °F 28% 30.09 in 10.0 mi North - - N/A   Clear
1:35 PM 64.4 °F 30.2 °F 28% 30.09 in 10.0 mi North - - N/A   Clear
1:55 PM 62.6 °F 28.4 °F 27% 30.08 in 10.0 mi North - - N/A   Clear
2:15 PM 62.6 °F 28.4 °F 27% 30.08 in 10.0 mi North - - N/A   Clear
2:35 PM 62.6 °F 28.4 °F 27% 30.07 in 10.0 mi North - - N/A   Clear
2:55 PM 62.6 °F 26.6 °F 26% 30.08 in 10.0 mi North - - N/A   Clear
3:15 PM 62.6 °F 26.6 °F 26% 30.08 in 8.0 mi North - - N/A   Clear
3:35 PM 62.6 °F 28.4 °F 27% 30.08 in 10.0 mi North - - N/A   Clear
3:55 PM 60.8 °F 28.4 °F 29% 30.08 in 10.0 mi North - - N/A   Clear
4:15 PM 59.0 °F 26.6 °F 29% 30.08 in 10.0 mi North - - N/A   Clear
4:35 PM 57.2 °F 28.4 °F 33% 30.08 in 10.0 mi North - - N/A   Clear
4:55 PM 50.0 °F 33.8 °F 54% 30.08 in 10.0 mi North - - N/A   Clear
5:15 PM 44.6 °F 32.0 °F 61% 30.09 in 10.0 mi North - - N/A   Clear
5:35 PM 41.0 °F 33.8 °F 76% 30.10 in 10.0 mi North - - N/A   Clear
5:55 PM 39.2 °F 33.8 °F 81% 30.10 in 10.0 mi North - - N/A   Clear
6:15 PM 37.4 °F 32.0 °F 81% 30.10 in 10.0 mi North - - N/A   Clear
6:35 PM 37.4 °F 33.8 °F 87% 30.10 in 10.0 mi North - - N/A   Clear
7:15 PM 35.6 °F 33.8 °F 93% 30.10 in 10.0 mi North - - N/A   Clear
7:35 PM 33.8 °F 33.8 °F 100% 30.10 in 10.0 mi North - - N/A   Clear
7:55 PM 33.8 °F 33.8 °F 100% 30.11 in 10.0 mi North - - N/A   Clear
8:15 PM 33.8 °F 33.8 °F 100% 30.11 in 10.0 mi North - - N/A   Clear
8:35 PM 32.0 °F 32.0 °F 100% 30.10 in 10.0 mi North - - N/A   Clear
8:55 PM 32.0 °F 32.0 °F 100% 30.10 in 10.0 mi North - - N/A   Clear
9:15 PM 32.0 °F 32.0 °F 100% 30.11 in 10.0 mi North - - N/A   Clear
9:35 PM 32.0 °F 32.0 °F 100% 30.11 in 10.0 mi North - - N/A   Clear
9:55 PM 30.2 °F 30.2 °F 100% 30.10 in 10.0 mi North - - N/A   Clear
10:15 PM 30.2 °F 30.2 °F 100% 30.10 in 10.0 mi North - - N/A   Clear
10:35 PM 30.2 °F 30.2 °F 100% 30.09 in 10.0 mi North - - N/A   Clear
10:55 PM 30.2 °F 30.2 °F 100% 30.09 in 10.0 mi North - - N/A   Clear
11:15 PM 30.2 °F 30.2 °F 100% 30.09 in 10.0 mi North - - N/A   Clear
11:35 PM 30.2 °F 30.2 °F 100% 30.09 in 10.0 mi North - - N/A   Clear
11:55 PM 28.4 °F 28.4 °F 100% 30.10 in 10.0 mi North - - N/A   Clear